When you browse on this site, cookies collect data to enhance your experience and personalize the content and advertising you see.
Visit our Privacy Policy to learn more. By continuing to use the site, you agree to this use of cookies and data.
  • In Hungary
  • List of Countries
  • For 7 days
  • Water Temperature
  • Satellite Maps
  • Weather Map
  • News
  • Weather Widgets
  • user-avatar
    Login

    Hourly Weather Providence

    Today, 20 February, Wednesday

    Time Temperature Precipitation Wind Pressure Humidity
    00:00 -6°C° 0 mm 2 mps 775 mmHg 51%
    01:00 -4°C° 0 mm 1 mps 775 mmHg 51%
    02:00 -6°C° 0 mm 1 mps 775 mmHg 50%
    03:00 -6°C° 0 mm 1 mps 775 mmHg 50%
    04:00 -6°C° 0 mm 1 mps 775 mmHg 49%
    05:00 -6°C° 0 mm 0 mps 776 mmHg 48%
    06:00 -6°C° 0 mm 0 mps 776 mmHg 47%
    07:00 -6°C° 0 mm 0 mps 776 mmHg 46%
    08:00 -4°C° 0 mm 0 mps 776 mmHg 42%
    09:00 -3°C° 0 mm 0 mps 775 mmHg 37%
    10:00 -1°C° 0 mm 1 mps 775 mmHg 33%
    11:00 -1°C° 0 mm 1 mps 775 mmHg 31%
    12:00 0°C° 0 mm 1 mps 774 mmHg 30%
    13:00 -1°C° 0 mm 2 mps 773 mmHg 29%
    14:00 -1°C° 0 mm 2 mps 773 mmHg 33%
    15:00 -1°C° 0 mm 2 mps 772 mmHg 36%
    16:00 -2°C° 0 mm 2 mps 772 mmHg 39%
    17:00 -2°C° 0 mm 2 mps 772 mmHg 46%
    18:00 -2°C° 0 mm 2 mps 771 mmHg 53%
    19:00 0°C° 0 mm 1 mps 771 mmHg 60%
    20:00 -2°C° 0.4 mm 2 mps 770 mmHg 70%
    21:00 -2°C° 0.4 mm 2 mps 769 mmHg 80%
    22:00 -2°C° 0.4 mm 2 mps 768 mmHg 90%
    23:00 -1°C° 0.6 mm 3 mps 767 mmHg 91%

    Tomorrow, 21 February, Thursday

    Time Temperature Precipitation Wind Pressure Humidity
    00:00 0°C° 0.6 mm 3 mps 765 mmHg 92%
    01:00 0°C° 0.6 mm 4 mps 764 mmHg 93%
    02:00 +1°C° 1.8 mm 4 mps 762 mmHg 94%
    03:00 +3°C° 1.8 mm 4 mps 760 mmHg 95%
    04:00 +4°C° 1.8 mm 4 mps 759 mmHg 96%
    05:00 +4°C° 0.1 mm 4 mps 758 mmHg 96%
    06:00 +5°C° 0.1 mm 3 mps 757 mmHg 97%
    07:00 +7°C° 0.1 mm 3 mps 756 mmHg 97%
    08:00 +8°C° 0 mm 3 mps 756 mmHg 93%
    09:00 +8°C° 0 mm 4 mps 755 mmHg 89%
    10:00 +10°C° 0 mm 4 mps 755 mmHg 84%
    11:00 +9°C° 0 mm 5 mps 755 mmHg 80%
    12:00 +10°C° 0 mm 5 mps 755 mmHg 75%
    13:00 +10°C° 0 mm 5 mps 755 mmHg 70%
    14:00 +9°C° 0 mm 5 mps 755 mmHg 70%
    15:00 +8°C° 0 mm 5 mps 756 mmHg 70%
    16:00 +6°C° 0 mm 4 mps 756 mmHg 69%
    17:00 +5°C° 0 mm 4 mps 757 mmHg 72%
    18:00 +3°C° 0 mm 4 mps 758 mmHg 75%
    19:00 +1°C° 0 mm 3 mps 759 mmHg 78%
    20:00 +1°C° 0 mm 3 mps 760 mmHg 79%
    21:00 0°C° 0 mm 3 mps 760 mmHg 80%
    22:00 0°C° 0 mm 3 mps 761 mmHg 81%
    23:00 0°C° 0 mm 3 mps 762 mmHg 80%

    Day after tomorrow, 22 February, Friday

    Time Temperature Precipitation Wind Pressure Humidity
    00:00 0°C° 0 mm 3 mps 762 mmHg 80%
    01:00 0°C° 0 mm 3 mps 762 mmHg 79%
    02:00 0°C° 0 mm 3 mps 763 mmHg 78%
    03:00 0°C° 0 mm 3 mps 763 mmHg 78%
    04:00 0°C° 0 mm 3 mps 764 mmHg 78%
    05:00 -1°C° 0 mm 3 mps 765 mmHg 79%
    06:00 -1°C° 0 mm 3 mps 765 mmHg 80%
    07:00 -2°C° 0 mm 2 mps 766 mmHg 81%
    08:00 0°C° 0 mm 3 mps 767 mmHg 74%
    09:00 +1°C° 0 mm 3 mps 767 mmHg 68%
    10:00 +3°C° 0 mm 3 mps 768 mmHg 62%
    11:00 +3°C° 0 mm 3 mps 768 mmHg 60%
    12:00 +4°C° 0 mm 3 mps 768 mmHg 58%
    13:00 +5°C° 0 mm 3 mps 768 mmHg 56%
    14:00 +5°C° 0 mm 3 mps 769 mmHg 57%
    15:00 +5°C° 0 mm 3 mps 769 mmHg 59%
    16:00 +5°C° 0 mm 3 mps 769 mmHg 60%
    17:00 +4°C° 0 mm 2 mps 770 mmHg 67%
    18:00 +3°C° 0 mm 2 mps 770 mmHg 73%
    19:00 +1°C° 0 mm 2 mps 771 mmHg 79%
    20:00 +1°C° 0 mm 2 mps 771 mmHg 81%
    21:00 -1°C° 0 mm 2 mps 772 mmHg 82%
    22:00 -2°C° 0 mm 2 mps 772 mmHg 84%
    23:00 0°C° 0 mm 1 mps 772 mmHg 84%

    23 February, Saturday

    Time Temperature Precipitation Wind Pressure Humidity
    00:00 0°C° 0 mm 1 mps 772 mmHg 84%
    01:00 0°C° 0 mm 1 mps 772 mmHg 84%
    02:00 -1°C° 0 mm 1 mps 772 mmHg 83%
    03:00 -1°C° 0 mm 1 mps 772 mmHg 83%
    04:00 -1°C° 0 mm 1 mps 772 mmHg 83%
    05:00 -1°C° 0 mm 0 mps 773 mmHg 81%
    06:00 -1°C° 0 mm 0 mps 773 mmHg 79%
    07:00 -1°C° 0 mm 0 mps 773 mmHg 78%
    08:00 +2°C° 0 mm 1 mps 773 mmHg 70%
    09:00 +3°C° 0 mm 1 mps 773 mmHg 63%
    10:00 +4°C° 0 mm 2 mps 772 mmHg 55%
    11:00 +5°C° 0 mm 2 mps 772 mmHg 55%
    12:00 +6°C° 0 mm 2 mps 771 mmHg 54%
    13:00 +7°C° 0 mm 3 mps 770 mmHg 53%
    14:00 +5°C° 0 mm 3 mps 770 mmHg 56%
    15:00 +5°C° 0 mm 3 mps 769 mmHg 59%
    16:00 +5°C° 0 mm 2 mps 769 mmHg 61%
    17:00 +4°C° 0 mm 2 mps 768 mmHg 67%
    18:00 +3°C° 0 mm 2 mps 768 mmHg 72%
    19:00 +2°C° 0 mm 2 mps 768 mmHg 78%
    20:00 +3°C° 0.1 mm 1 mps 767 mmHg 80%
    21:00 +3°C° 0.1 mm 1 mps 766 mmHg 82%
    22:00 +3°C° 0.1 mm 1 mps 765 mmHg 84%
    23:00 +3°C° 1.1 mm 2 mps 764 mmHg 87%

    24 February, Sunday

    Time Temperature Precipitation Wind Pressure Humidity
    00:00 +3°C° 1.1 mm 2 mps 763 mmHg 90%
    01:00 +3°C° 1.1 mm 2 mps 762 mmHg 93%
    02:00 +3°C° 3 mm 2 mps 760 mmHg 94%
    03:00 +3°C° 3 mm 3 mps 758 mmHg 96%
    04:00 +4°C° 3 mm 3 mps 757 mmHg 97%
    05:00 +4°C° 2.1 mm 3 mps 756 mmHg 97%
    06:00 +6°C° 2.1 mm 2 mps 754 mmHg 97%
    07:00 +7°C° 2.1 mm 2 mps 753 mmHg 98%
    08:00 +7°C° 0.2 mm 2 mps 752 mmHg 98%
    09:00 +8°C° 0.2 mm 2 mps 751 mmHg 98%
    10:00 +9°C° 0.2 mm 1 mps 750 mmHg 98%
    11:00 +9°C° 0.1 mm 2 mps 748 mmHg 98%
    12:00 +9°C° 0.1 mm 3 mps 747 mmHg 97%
    13:00 +10°C° 0.1 mm 3 mps 745 mmHg 97%
    14:00 +11°C° 0.1 mm 4 mps 745 mmHg 95%
    15:00 +12°C° 0.1 mm 4 mps 744 mmHg 94%
    16:00 +13°C° 0.1 mm 4 mps 743 mmHg 93%
    17:00 +12°C° 0 mm 5 mps 743 mmHg 85%
    18:00 +9°C° 0 mm 5 mps 744 mmHg 77%
    19:00 +8°C° 0 mm 6 mps 744 mmHg 69%
    20:00 +7°C° 0 mm 6 mps 744 mmHg 69%
    21:00 +7°C° 0 mm 6 mps 744 mmHg 70%
    22:00 +5°C° 0 mm 6 mps 744 mmHg 70%
    23:00 +5°C° 0 mm 6 mps 744 mmHg 69%

    25 February, Monday

    Time Temperature Precipitation Wind Pressure Humidity
    00:00 +4°C° 0 mm 7 mps 744 mmHg 67%
    01:00 +4°C° 0 mm 7 mps 744 mmHg 65%
    02:00 +3°C° 0 mm 7 mps 745 mmHg 64%
    03:00 +2°C° 0 mm 7 mps 745 mmHg 63%
    04:00 +2°C° 0 mm 7 mps 746 mmHg 62%
    05:00 0°C° 0 mm 8 mps 747 mmHg 60%
    06:00 0°C° 0 mm 8 mps 748 mmHg 59%
    07:00 -1°C° 0 mm 9 mps 749 mmHg 57%
    08:00 0°C° 0 mm 9 mps 750 mmHg 54%
    09:00 0°C° 0 mm 10 mps 751 mmHg 50%
    10:00 0°C° 0 mm 10 mps 752 mmHg 46%
    11:00 +1°C° 0 mm 10 mps 753 mmHg 45%
    12:00 +1°C° 0 mm 10 mps 754 mmHg 44%
    13:00 +1°C° 0 mm 10 mps 755 mmHg 42%
    14:00 +1°C° 0 mm 10 mps 756 mmHg 42%
    15:00 0°C° 0 mm 9 mps 758 mmHg 42%
    16:00 0°C° 0 mm 9 mps 759 mmHg 42%
    17:00 -1°C° 0 mm 8 mps 760 mmHg 44%
    18:00 -4°C° 0 mm 8 mps 762 mmHg 47%
    19:00 -4°C° 0 mm 7 mps 764 mmHg 50%
    20:00 -4°C° 0 mm 7 mps 765 mmHg 50%
    21:00 -5°C° 0 mm 6 mps 765 mmHg 50%
    22:00 -5°C° 0 mm 6 mps 766 mmHg 49%
    23:00 -6°C° 0 mm 6 mps 767 mmHg 47%
    Show more